Year,Month,Day,Hour,Minute,Value (Times are PST for temperature in C)
2019,03,19,00,00,11.30
2019,03,19,00,01,11.40
2019,03,19,00,02,11.40
2019,03,19,00,03,11.60
2019,03,19,00,04,11.60
2019,03,19,00,05,11.70
2019,03,19,00,06,11.70
2019,03,19,00,07,11.80
2019,03,19,00,08,11.80
2019,03,19,00,09,11.80
2019,03,19,00,10,11.90
2019,03,19,00,11,12.00
2019,03,19,00,12,12.00
2019,03,19,00,13,12.10
2019,03,19,00,14,12.10
2019,03,19,00,15,12.10
2019,03,19,00,16,12.10
2019,03,19,00,17,12.10
2019,03,19,00,18,12.00
2019,03,19,00,19,12.00
2019,03,19,00,20,11.90
2019,03,19,00,21,11.80
2019,03,19,00,22,11.80
2019,03,19,00,23,11.70
2019,03,19,00,24,11.60
2019,03,19,00,25,11.50
2019,03,19,00,26,11.40
2019,03,19,00,27,11.40
2019,03,19,00,28,11.40
2019,03,19,00,29,11.40
2019,03,19,00,30,11.40
2019,03,19,00,31,11.30
2019,03,19,00,32,11.30
2019,03,19,00,33,11.20
2019,03,19,00,34,11.20
2019,03,19,00,35,11.10
2019,03,19,00,36,11.10
2019,03,19,00,37,11.10
2019,03,19,00,38,11.10
2019,03,19,00,39,11.10
2019,03,19,00,40,11.00
2019,03,19,00,41,10.90
2019,03,19,00,42,10.90
2019,03,19,00,43,10.90
2019,03,19,00,44,10.90
2019,03,19,00,45,10.90
2019,03,19,00,46,10.90
2019,03,19,00,47,11.00
2019,03,19,00,48,11.10
2019,03,19,00,49,11.10
2019,03,19,00,50,11.10
2019,03,19,00,51,11.10
2019,03,19,00,52,11.10
2019,03,19,00,53,11.20
2019,03,19,00,54,11.30
2019,03,19,00,55,11.30
2019,03,19,00,56,11.30
2019,03,19,00,57,11.40
2019,03,19,00,58,11.40
2019,03,19,00,59,11.40
2019,03,19,01,00,11.40
2019,03,19,01,01,11.40
2019,03,19,01,02,11.40
2019,03,19,01,03,11.40
2019,03,19,01,04,11.40
2019,03,19,01,05,11.40
2019,03,19,01,06,11.40
2019,03,19,01,07,11.50
2019,03,19,01,08,11.60
2019,03,19,01,09,11.60
2019,03,19,01,10,11.60
2019,03,19,01,11,11.50
2019,03,19,01,12,11.40
2019,03,19,01,13,11.40
2019,03,19,01,14,11.30
2019,03,19,01,15,11.20
2019,03,19,01,16,11.20
2019,03,19,01,17,11.20
2019,03,19,01,18,11.20
2019,03,19,01,19,11.30
2019,03,19,01,20,11.30
2019,03,19,01,21,11.30
2019,03,19,01,22,11.30
2019,03,19,01,23,11.20
2019,03,19,01,24,11.20
2019,03,19,01,25,11.20
2019,03,19,01,26,11.10
2019,03,19,01,27,11.10
2019,03,19,01,28,11.10
2019,03,19,01,29,11.10
2019,03,19,01,30,11.00
2019,03,19,01,31,10.90
2019,03,19,01,32,10.90
2019,03,19,01,33,10.90
2019,03,19,01,34,10.90
2019,03,19,01,35,11.00
2019,03,19,01,36,11.10
2019,03,19,01,37,11.30
2019,03,19,01,38,11.40
2019,03,19,01,39,11.40
2019,03,19,01,40,11.40
2019,03,19,01,41,11.40
2019,03,19,01,42,11.50
2019,03,19,01,43,11.60
2019,03,19,01,44,11.50
2019,03,19,01,45,11.40
2019,03,19,01,46,11.30
2019,03,19,01,47,11.20
2019,03,19,01,48,11.10
2019,03,19,01,49,11.00
2019,03,19,01,50,10.90
2019,03,19,01,51,10.90
2019,03,19,01,52,10.80
2019,03,19,01,53,10.80
2019,03,19,01,54,10.80
2019,03,19,01,55,10.80
2019,03,19,01,56,10.70
2019,03,19,01,57,10.50
2019,03,19,01,58,10.30
2019,03,19,01,59,10.20
2019,03,19,02,00,10.20
2019,03,19,02,01,10.20
2019,03,19,02,02,10.20
2019,03,19,02,03,10.20
2019,03,19,02,04,10.20
2019,03,19,02,05,10.20
2019,03,19,02,06,10.20
2019,03,19,02,07,10.20
2019,03,19,02,08,10.20
2019,03,19,02,09,10.20
2019,03,19,02,10,10.30
2019,03,19,02,11,10.30
2019,03,19,02,12,10.40
2019,03,19,02,13,10.40
2019,03,19,02,14,10.40
2019,03,19,02,15,10.60
2019,03,19,02,16,10.60
2019,03,19,02,17,10.70
2019,03,19,02,18,10.80
2019,03,19,02,19,10.80
2019,03,19,02,20,10.90
2019,03,19,02,21,10.90
2019,03,19,02,22,10.90
2019,03,19,02,23,11.00
2019,03,19,02,24,11.00
2019,03,19,02,25,10.90
2019,03,19,02,26,10.80
2019,03,19,02,27,10.70
2019,03,19,02,28,10.60
2019,03,19,02,29,10.40
2019,03,19,02,30,10.20
2019,03,19,02,31,10.10
2019,03,19,02,32,9.90
2019,03,19,02,33,9.80
2019,03,19,02,34,9.70
2019,03,19,02,35,9.60
2019,03,19,02,36,9.50
2019,03,19,02,37,9.50
2019,03,19,02,38,9.40
2019,03,19,02,39,9.40
2019,03,19,02,40,9.40
2019,03,19,02,41,9.40
2019,03,19,02,42,9.40
2019,03,19,02,43,9.40
2019,03,19,02,44,9.40
2019,03,19,02,45,9.40
2019,03,19,02,46,9.30
2019,03,19,02,47,9.30
2019,03,19,02,48,9.20
2019,03,19,02,49,9.20
2019,03,19,02,50,9.20
2019,03,19,02,51,9.10
2019,03,19,02,52,9.00
2019,03,19,02,53,9.00
2019,03,19,02,54,9.00
2019,03,19,02,55,9.00
2019,03,19,02,56,9.00
2019,03,19,02,57,9.00
2019,03,19,02,58,9.10
2019,03,19,02,59,9.10
2019,03,19,03,00,9.20
2019,03,19,03,01,9.20
2019,03,19,03,02,9.30
2019,03,19,03,03,9.40
2019,03,19,03,04,9.40
2019,03,19,03,05,9.40
2019,03,19,03,06,9.40
2019,03,19,03,07,9.40
2019,03,19,03,08,9.40
2019,03,19,03,09,9.40
2019,03,19,03,10,9.50
2019,03,19,03,11,9.50
2019,03,19,03,12,9.50
2019,03,19,03,13,9.60
2019,03,19,03,14,9.70
2019,03,19,03,15,9.70
2019,03,19,03,16,9.70
2019,03,19,03,17,9.70
2019,03,19,03,18,9.80
2019,03,19,03,19,9.80
2019,03,19,03,20,9.90
2019,03,19,03,21,9.90
2019,03,19,03,22,9.90
2019,03,19,03,23,9.80
2019,03,19,03,24,9.80
2019,03,19,03,25,9.80
2019,03,19,03,26,9.80
2019,03,19,03,27,9.80
2019,03,19,03,28,9.80
2019,03,19,03,29,9.80
2019,03,19,03,30,9.80
2019,03,19,03,31,9.70
2019,03,19,03,32,9.70
2019,03,19,03,33,9.70
2019,03,19,03,34,9.70
2019,03,19,03,35,9.70
2019,03,19,03,36,9.70
2019,03,19,03,37,9.60
2019,03,19,03,38,9.60
2019,03,19,03,39,9.50
2019,03,19,03,40,9.50
2019,03,19,03,41,9.50
2019,03,19,03,42,9.40
2019,03,19,03,43,9.40
2019,03,19,03,44,9.30
2019,03,19,03,45,9.30
2019,03,19,03,46,9.30
2019,03,19,03,47,9.30
2019,03,19,03,48,9.30
2019,03,19,03,49,9.30
2019,03,19,03,50,9.30
2019,03,19,03,51,9.30
2019,03,19,03,52,9.30
2019,03,19,03,53,9.30
2019,03,19,03,54,9.30
2019,03,19,03,55,9.30
2019,03,19,03,56,9.30
2019,03,19,03,57,9.40
2019,03,19,03,58,9.40
2019,03,19,03,59,9.40
2019,03,19,04,00,9.50
2019,03,19,04,01,9.50
2019,03,19,04,02,9.50
2019,03,19,04,03,9.50
2019,03,19,04,04,9.60
2019,03,19,04,05,9.70
2019,03,19,04,06,9.70
2019,03,19,04,07,9.70
2019,03,19,04,08,9.70
2019,03,19,04,09,9.70
2019,03,19,04,10,9.70
2019,03,19,04,11,9.80
2019,03,19,04,12,9.80
2019,03,19,04,13,9.90
2019,03,19,04,14,9.90
2019,03,19,04,15,9.90
2019,03,19,04,16,9.90
2019,03,19,04,17,9.90
2019,03,19,04,18,10.00
2019,03,19,04,19,10.10
2019,03,19,04,20,10.10
2019,03,19,04,21,10.10
2019,03,19,04,22,9.90
2019,03,19,04,23,9.90
2019,03,19,04,24,9.90
2019,03,19,04,25,9.90
2019,03,19,04,26,9.90
2019,03,19,04,27,9.90
2019,03,19,04,28,10.00
2019,03,19,04,29,10.10
2019,03,19,04,30,10.10
2019,03,19,04,31,10.00
2019,03,19,04,32,9.90
2019,03,19,04,33,9.90
2019,03,19,04,34,9.90
2019,03,19,04,35,9.80
2019,03,19,04,36,9.80
2019,03,19,04,37,9.70
2019,03,19,04,38,9.70
2019,03,19,04,39,9.60
2019,03,19,04,40,9.50
2019,03,19,04,41,9.40
2019,03,19,04,42,9.40
2019,03,19,04,43,9.30
2019,03,19,04,44,9.30
2019,03,19,04,45,9.20
2019,03,19,04,46,9.20
2019,03,19,04,47,9.00
2019,03,19,04,48,8.90
2019,03,19,04,49,8.80
2019,03,19,04,50,8.60
2019,03,19,04,51,8.40
2019,03,19,04,52,8.20
2019,03,19,04,53,8.00
2019,03,19,04,54,7.90
2019,03,19,04,55,7.80
2019,03,19,04,56,7.70
2019,03,19,04,57,7.70
2019,03,19,04,58,7.60
2019,03,19,04,59,7.50
2019,03,19,05,00,7.50
2019,03,19,05,01,7.40
2019,03,19,05,02,7.40
2019,03,19,05,03,7.30
2019,03,19,05,04,7.30
2019,03,19,05,05,7.40
2019,03,19,05,06,7.40
2019,03,19,05,07,7.50
2019,03,19,05,08,7.60
2019,03,19,05,09,7.60
2019,03,19,05,10,7.70
2019,03,19,05,11,7.70
2019,03,19,05,12,7.70
2019,03,19,05,13,7.80
2019,03,19,05,14,7.80
2019,03,19,05,15,7.80
2019,03,19,05,16,7.80
2019,03,19,05,17,7.80
2019,03,19,05,18,7.90
2019,03,19,05,19,8.00
2019,03,19,05,20,8.00
2019,03,19,05,21,8.10
2019,03,19,05,22,8.20
2019,03,19,05,23,8.10
2019,03,19,05,24,8.10
2019,03,19,05,25,8.20
2019,03,19,05,26,8.20
2019,03,19,05,27,8.20
2019,03,19,05,28,8.20
2019,03,19,05,29,8.30
2019,03,19,05,30,8.30
2019,03,19,05,31,8.40
2019,03,19,05,32,8.40
2019,03,19,05,33,8.40
2019,03,19,05,34,8.40
2019,03,19,05,35,8.40
2019,03,19,05,36,8.50
2019,03,19,05,37,8.40
2019,03,19,05,38,8.40
2019,03,19,05,39,8.40
2019,03,19,05,40,8.50
2019,03,19,05,41,8.50
2019,03,19,05,42,8.50
2019,03,19,05,43,8.50
2019,03,19,05,44,8.50
2019,03,19,05,45,8.40
2019,03,19,05,46,8.40
2019,03,19,05,47,8.40
2019,03,19,05,48,8.40
2019,03,19,05,49,8.30
2019,03,19,05,50,8.30
2019,03,19,05,51,8.30
2019,03,19,05,52,8.30
2019,03,19,05,53,8.30
2019,03,19,05,54,8.30
2019,03,19,05,55,8.40
2019,03,19,05,56,8.40
2019,03,19,05,57,8.40
2019,03,19,05,58,8.50
2019,03,19,05,59,8.60
2019,03,19,06,00,8.80
2019,03,19,06,01,8.90
2019,03,19,06,02,9.00
2019,03,19,06,03,9.00
2019,03,19,06,04,9.00
2019,03,19,06,05,9.00
2019,03,19,06,06,9.00
2019,03,19,06,07,9.10
2019,03,19,06,08,9.10
2019,03,19,06,09,9.10
2019,03,19,06,10,9.10
2019,03,19,06,11,9.20
2019,03,19,06,12,9.20
2019,03,19,06,13,9.20
2019,03,19,06,14,9.20
2019,03,19,06,15,9.20
2019,03,19,06,16,9.20
2019,03,19,06,17,9.20
2019,03,19,06,18,9.20
2019,03,19,06,19,9.20
2019,03,19,06,20,9.20
2019,03,19,06,21,9.30
2019,03,19,06,22,9.30
2019,03,19,06,23,9.30
2019,03,19,06,24,9.30
2019,03,19,06,25,9.30
2019,03,19,06,26,9.30
2019,03,19,06,27,9.30
2019,03,19,06,28,9.30
2019,03,19,06,29,9.40
2019,03,19,06,30,9.40
2019,03,19,06,31,9.40
2019,03,19,06,32,9.40
2019,03,19,06,33,9.40
2019,03,19,06,34,9.50
2019,03,19,06,35,9.50
2019,03,19,06,36,9.50
2019,03,19,06,37,9.50
2019,03,19,06,38,9.50
2019,03,19,06,39,9.50
2019,03,19,06,40,9.50
2019,03,19,06,41,9.50
2019,03,19,06,42,9.50
2019,03,19,06,43,9.50
2019,03,19,06,44,9.50
2019,03,19,06,45,9.50
2019,03,19,06,46,9.50
2019,03,19,06,47,9.60
2019,03,19,06,48,9.60
2019,03,19,06,49,9.60
2019,03,19,06,50,9.60
2019,03,19,06,51,9.60
2019,03,19,06,52,9.60
2019,03,19,06,53,9.60
2019,03,19,06,54,9.60
2019,03,19,06,55,9.60
2019,03,19,06,56,9.60
2019,03,19,06,57,9.60
2019,03,19,06,58,9.60
2019,03,19,06,59,9.60
2019,03,19,07,00,9.50
2019,03,19,07,01,9.50
2019,03,19,07,02,9.50
2019,03,19,07,03,9.50
2019,03,19,07,04,9.50
2019,03,19,07,05,9.40
2019,03,19,07,06,9.40
2019,03,19,07,07,9.40
2019,03,19,07,08,9.30
2019,03,19,07,09,9.30
2019,03,19,07,10,9.30
2019,03,19,07,11,9.30
2019,03,19,07,12,9.20
2019,03,19,07,13,9.20
2019,03,19,07,14,9.30
2019,03,19,07,15,9.30
2019,03,19,07,16,9.30
2019,03,19,07,17,9.30
2019,03,19,07,18,9.30
2019,03,19,07,19,9.30
2019,03,19,07,20,9.30
2019,03,19,07,21,9.30
2019,03,19,07,22,9.40
2019,03,19,07,23,9.40
2019,03,19,07,24,9.40
2019,03,19,07,25,9.40
2019,03,19,07,26,9.40
2019,03,19,07,27,9.50
2019,03,19,07,28,9.50
2019,03,19,07,29,9.60
2019,03,19,07,30,9.60
2019,03,19,07,31,9.70
2019,03,19,07,32,9.70
2019,03,19,07,33,9.70
2019,03,19,07,34,9.80
2019,03,19,07,35,9.80
2019,03,19,07,36,9.90
2019,03,19,07,37,9.90
2019,03,19,07,38,9.90
2019,03,19,07,39,9.90
2019,03,19,07,40,9.90
2019,03,19,07,41,10.00
2019,03,19,07,42,10.10
2019,03,19,07,43,10.10
2019,03,19,07,44,10.10
2019,03,19,07,45,10.10
2019,03,19,07,46,10.10
2019,03,19,07,47,10.10
2019,03,19,07,48,10.10
2019,03,19,07,49,10.10
2019,03,19,07,50,10.10
2019,03,19,07,51,10.10
2019,03,19,07,52,10.10
2019,03,19,07,53,10.10
2019,03,19,07,54,10.10
2019,03,19,07,55,10.10
2019,03,19,07,56,10.10
2019,03,19,07,57,10.10
2019,03,19,07,58,10.10
2019,03,19,07,59,10.10
2019,03,19,08,00,10.10
2019,03,19,08,01,10.10
2019,03,19,08,02,10.20
2019,03,19,08,03,10.20
2019,03,19,08,04,10.20
2019,03,19,08,05,10.20
2019,03,19,08,06,10.20
2019,03,19,08,07,10.30
2019,03,19,08,08,10.30
2019,03,19,08,09,10.40
2019,03,19,08,10,10.40
2019,03,19,08,11,10.40
2019,03,19,08,12,10.50
2019,03,19,08,13,10.60
2019,03,19,08,14,10.60
2019,03,19,08,15,10.60
2019,03,19,08,16,10.70
2019,03,19,08,17,10.70
2019,03,19,08,18,10.80
2019,03,19,08,19,10.80
2019,03,19,08,20,10.90
2019,03,19,08,21,10.90
2019,03,19,08,22,10.90
2019,03,19,08,23,10.90
2019,03,19,08,24,10.90
2019,03,19,08,25,11.00
2019,03,19,08,26,11.10
2019,03,19,08,27,11.10
2019,03,19,08,28,11.20
2019,03,19,08,29,11.20
2019,03,19,08,30,11.30
2019,03,19,08,31,11.30
2019,03,19,08,32,11.30
2019,03,19,08,33,11.30
2019,03,19,08,34,11.30
2019,03,19,08,35,11.40
2019,03,19,08,36,11.40
2019,03,19,08,37,11.40
2019,03,19,08,38,11.40
2019,03,19,08,39,11.50
2019,03,19,08,40,11.60
2019,03,19,08,41,11.60
2019,03,19,08,42,11.60
2019,03,19,08,43,11.60
2019,03,19,08,44,11.70
2019,03,19,08,45,11.70
2019,03,19,08,46,11.70
2019,03,19,08,47,11.70
2019,03,19,08,48,11.80
2019,03,19,08,49,11.80
2019,03,19,08,50,11.80
2019,03,19,08,51,11.80
2019,03,19,08,52,11.90
2019,03,19,08,53,11.90
2019,03,19,08,54,11.90
2019,03,19,08,55,12.00
2019,03,19,08,56,12.00
2019,03,19,08,57,12.10
2019,03,19,08,58,12.10
2019,03,19,08,59,12.20
2019,03,19,09,00,12.20
2019,03,19,09,01,12.20
2019,03,19,09,02,12.30
2019,03,19,09,03,12.30
2019,03,19,09,04,12.30
2019,03,19,09,05,12.30
2019,03,19,09,06,12.30
2019,03,19,09,07,12.30
2019,03,19,09,08,12.40
2019,03,19,09,09,12.40
2019,03,19,09,10,12.40
2019,03,19,09,11,12.50
2019,03,19,09,12,12.50
2019,03,19,09,13,12.50
2019,03,19,09,14,12.60
2019,03,19,09,15,12.60
2019,03,19,09,16,12.70
2019,03,19,09,17,12.70
2019,03,19,09,18,12.80
2019,03,19,09,19,12.80
2019,03,19,09,20,12.80
2019,03,19,09,21,12.80
2019,03,19,09,22,12.90
2019,03,19,09,23,12.90
2019,03,19,09,24,13.00
2019,03,19,09,25,13.00
2019,03,19,09,26,13.10
2019,03,19,09,27,13.10
2019,03,19,09,28,13.20
2019,03,19,09,29,13.20
2019,03,19,09,30,13.20
2019,03,19,09,31,13.30
2019,03,19,09,32,13.30
2019,03,19,09,33,13.30
2019,03,19,09,34,13.30
2019,03,19,09,35,13.30
2019,03,19,09,36,13.30
2019,03,19,09,37,13.30
2019,03,19,09,38,13.30
2019,03,19,09,39,13.30
2019,03,19,09,40,13.30
2019,03,19,09,41,13.30
2019,03,19,09,42,13.30
2019,03,19,09,43,13.30
2019,03,19,09,44,13.30
2019,03,19,09,45,13.30
2019,03,19,09,46,13.30
2019,03,19,09,47,13.30
2019,03,19,09,48,13.30
2019,03,19,09,49,13.30
2019,03,19,09,50,13.30
2019,03,19,09,51,13.30
2019,03,19,09,52,13.30
2019,03,19,09,53,13.40
2019,03,19,09,54,13.40
2019,03,19,09,55,13.50
2019,03,19,09,56,13.50
2019,03,19,09,57,13.50
2019,03,19,09,58,13.50
2019,03,19,09,59,13.50
2019,03,19,10,00,13.60
2019,03,19,10,01,13.60
2019,03,19,10,02,13.70
2019,03,19,10,03,13.70
2019,03,19,10,04,13.70
2019,03,19,10,05,13.80
2019,03,19,10,06,13.80
2019,03,19,10,07,13.90
2019,03,19,10,08,13.90
2019,03,19,10,09,14.00
2019,03,19,10,10,14.10
2019,03,19,10,11,14.20
2019,03,19,10,12,14.20
2019,03,19,10,13,14.30
2019,03,19,10,14,14.30
2019,03,19,10,15,14.30
2019,03,19,10,16,14.40
2019,03,19,10,17,14.40
2019,03,19,10,18,14.40
2019,03,19,10,19,14.30
2019,03,19,10,20,14.30
2019,03,19,10,21,14.30
2019,03,19,10,22,14.30
2019,03,19,10,23,14.40
2019,03,19,10,24,14.40
2019,03,19,10,25,14.40
2019,03,19,10,26,14.40
2019,03,19,10,27,14.40
2019,03,19,10,28,14.50
2019,03,19,10,29,14.50
2019,03,19,10,30,14.50
2019,03,19,10,31,14.60
2019,03,19,10,32,14.60
2019,03,19,10,33,14.70
2019,03,19,10,34,14.70
2019,03,19,10,35,14.70
2019,03,19,10,36,14.60
2019,03,19,10,37,14.60
2019,03,19,10,38,14.60
2019,03,19,10,39,14.60
2019,03,19,10,40,14.70
2019,03,19,10,41,14.60
2019,03,19,10,42,14.70
2019,03,19,10,43,14.70
2019,03,19,10,44,14.80
2019,03,19,10,45,14.90
2019,03,19,10,46,14.90
2019,03,19,10,47,15.00
2019,03,19,10,48,15.00
2019,03,19,10,49,15.10
2019,03,19,10,50,15.10
2019,03,19,10,51,15.20
2019,03,19,10,52,15.20
2019,03,19,10,53,15.30
2019,03,19,10,54,15.30
2019,03,19,10,55,15.30
2019,03,19,10,56,15.30
2019,03,19,10,57,15.40
2019,03,19,10,58,15.40
2019,03,19,10,59,15.40
2019,03,19,11,00,15.40
2019,03,19,11,01,15.30
2019,03,19,11,02,15.30
2019,03,19,11,03,15.30
2019,03,19,11,04,15.40
2019,03,19,11,05,15.40
2019,03,19,11,06,15.50
2019,03,19,11,07,15.50
2019,03,19,11,08,15.60
2019,03,19,11,09,15.60
2019,03,19,11,10,15.60
2019,03,19,11,11,15.60
2019,03,19,11,12,15.60
2019,03,19,11,13,15.50
2019,03,19,11,14,15.50
2019,03,19,11,15,15.50
2019,03,19,11,16,15.50
2019,03,19,11,17,15.60
2019,03,19,11,18,15.60
2019,03,19,11,19,15.70
2019,03,19,11,20,15.70
2019,03,19,11,21,15.80
2019,03,19,11,22,15.80
2019,03,19,11,23,15.90
2019,03,19,11,24,16.00
2019,03,19,11,25,16.10
2019,03,19,11,26,16.10
2019,03,19,11,27,16.20
2019,03,19,11,28,16.30
2019,03,19,11,29,16.30
2019,03,19,11,30,16.30
2019,03,19,11,31,16.40
2019,03,19,11,32,16.40
2019,03,19,11,33,16.50
2019,03,19,11,34,16.60
2019,03,19,11,35,16.60
2019,03,19,11,36,16.60
2019,03,19,11,37,16.60
2019,03,19,11,38,16.60
2019,03,19,11,39,16.60
2019,03,19,11,40,16.70
2019,03,19,11,41,16.70
2019,03,19,11,42,16.70
2019,03,19,11,43,16.70
2019,03,19,11,44,16.80
2019,03,19,11,45,16.80
2019,03,19,11,46,16.80
2019,03,19,11,47,16.80
2019,03,19,11,48,16.80
2019,03,19,11,49,16.80
2019,03,19,11,50,16.80
2019,03,19,11,51,16.90
2019,03,19,11,52,16.90
2019,03,19,11,53,16.90
2019,03,19,11,54,16.90
2019,03,19,11,55,16.90
2019,03,19,11,56,16.90
2019,03,19,11,57,16.80
2019,03,19,11,58,16.80
2019,03,19,11,59,16.80
2019,03,19,12,00,16.80
2019,03,19,12,01,16.90
2019,03,19,12,02,16.90
2019,03,19,12,03,16.90
2019,03,19,12,04,17.00
2019,03,19,12,05,16.90
2019,03,19,12,06,16.80
2019,03,19,12,07,16.70
2019,03,19,12,08,16.70
2019,03,19,12,09,16.70
2019,03,19,12,10,16.70
2019,03,19,12,11,16.70
2019,03,19,12,12,16.70
2019,03,19,12,13,16.70
2019,03,19,12,14,16.70
2019,03,19,12,15,16.80
2019,03,19,12,16,16.80
2019,03,19,12,17,16.90
2019,03,19,12,18,17.00
2019,03,19,12,19,17.10
2019,03,19,12,20,17.20
2019,03,19,12,21,17.20
2019,03,19,12,22,17.30
2019,03,19,12,23,17.30
2019,03,19,12,24,17.30
2019,03,19,12,25,17.30
2019,03,19,12,26,17.30
2019,03,19,12,27,17.30
2019,03,19,12,28,17.30
2019,03,19,12,29,17.30
2019,03,19,12,30,17.30
2019,03,19,12,31,17.40
2019,03,19,12,32,17.40
2019,03,19,12,33,17.50
2019,03,19,12,34,17.50
2019,03,19,12,35,17.60
2019,03,19,12,36,17.70
2019,03,19,12,37,17.80
2019,03,19,12,38,17.80
2019,03,19,12,39,17.80
2019,03,19,12,40,17.90
2019,03,19,12,41,17.90
2019,03,19,12,42,17.80
2019,03,19,12,43,17.90
2019,03,19,12,44,17.90
2019,03,19,12,45,17.90
2019,03,19,12,46,17.90
2019,03,19,12,47,17.90
2019,03,19,12,48,17.90
2019,03,19,12,49,17.90
2019,03,19,12,50,17.90
2019,03,19,12,51,17.90
2019,03,19,12,52,17.90
2019,03,19,12,53,17.90
2019,03,19,12,54,17.90
2019,03,19,12,55,18.00
2019,03,19,12,56,18.10
2019,03,19,12,57,18.10
2019,03,19,12,58,18.10
2019,03,19,12,59,18.10
2019,03,19,13,00,18.10
2019,03,19,13,01,18.10
2019,03,19,13,02,18.10
2019,03,19,13,03,18.10
2019,03,19,13,04,18.20
2019,03,19,13,05,18.20
2019,03,19,13,06,18.20
2019,03,19,13,07,18.20
2019,03,19,13,08,18.30
2019,03,19,13,09,18.30
2019,03,19,13,10,18.30
2019,03,19,13,11,18.40
2019,03,19,13,12,18.50
2019,03,19,13,13,18.50
2019,03,19,13,14,18.60
2019,03,19,13,15,18.60
2019,03,19,13,16,18.60
2019,03,19,13,17,18.60
2019,03,19,13,18,18.60
2019,03,19,13,19,18.60
2019,03,19,13,20,18.60
2019,03,19,13,21,18.60
2019,03,19,13,22,18.80
2019,03,19,13,23,18.90
2019,03,19,13,24,18.90
2019,03,19,13,25,18.90
2019,03,19,13,26,18.90
2019,03,19,13,27,18.90
2019,03,19,13,28,19.10
2019,03,19,13,29,19.10
2019,03,19,13,30,19.10
2019,03,19,13,31,19.10
2019,03,19,13,32,19.10
2019,03,19,13,33,19.10
2019,03,19,13,34,19.10
2019,03,19,13,35,19.10
2019,03,19,13,36,19.10
2019,03,19,13,37,19.10
2019,03,19,13,38,19.10
2019,03,19,13,39,19.10
2019,03,19,13,40,19.10
2019,03,19,13,41,19.10
2019,03,19,13,42,19.10
2019,03,19,13,43,19.20
2019,03,19,13,44,19.20
2019,03,19,13,45,19.20
2019,03,19,13,46,19.20
2019,03,19,13,47,19.20
2019,03,19,13,48,19.20
2019,03,19,13,49,19.20
2019,03,19,13,50,19.30
2019,03,19,13,51,19.30
2019,03,19,13,52,19.40
2019,03,19,13,53,19.50
2019,03,19,13,54,19.50
2019,03,19,13,55,19.60
2019,03,19,13,56,19.60
2019,03,19,13,57,19.60
2019,03,19,13,58,19.70
2019,03,19,13,59,19.70
2019,03,19,14,00,19.70
2019,03,19,14,01,19.70
2019,03,19,14,02,19.70
2019,03,19,14,03,19.70
2019,03,19,14,04,19.70
2019,03,19,14,05,19.70
2019,03,19,14,06,19.70
2019,03,19,14,07,19.70
2019,03,19,14,08,19.70
2019,03,19,14,09,19.70
2019,03,19,14,10,19.70
2019,03,19,14,11,19.60
2019,03,19,14,12,19.60
2019,03,19,14,13,19.60
2019,03,19,14,14,19.60
2019,03,19,14,15,19.70
2019,03,19,14,16,19.80
2019,03,19,14,17,19.80
2019,03,19,14,18,19.80
2019,03,19,14,19,19.80
2019,03,19,14,20,19.80
2019,03,19,14,21,19.90
2019,03,19,14,22,19.90
2019,03,19,14,23,19.90
2019,03,19,14,24,19.90
2019,03,19,14,25,19.90
2019,03,19,14,26,20.00
2019,03,19,14,27,20.10
2019,03,19,14,28,20.20
2019,03,19,14,29,20.20
2019,03,19,14,30,20.30
2019,03,19,14,31,20.30
2019,03,19,14,32,20.30
2019,03,19,14,33,20.30
2019,03,19,14,34,20.30
2019,03,19,14,35,20.30
2019,03,19,14,36,20.30
2019,03,19,14,37,20.40
2019,03,19,14,38,20.40
2019,03,19,14,39,20.40
2019,03,19,14,40,20.40
2019,03,19,14,41,20.40
2019,03,19,14,42,20.40
2019,03,19,14,43,20.40
2019,03,19,14,44,20.50
2019,03,19,14,45,20.50
2019,03,19,14,46,20.60
2019,03,19,14,47,20.60
2019,03,19,14,48,20.60
2019,03,19,14,49,20.70
2019,03,19,14,50,20.70
2019,03,19,14,51,20.70
2019,03,19,14,52,20.80
2019,03,19,14,53,20.90
2019,03,19,14,54,20.90
2019,03,19,14,55,21.00
2019,03,19,14,56,21.10
2019,03,19,14,57,21.10
2019,03,19,14,58,21.20
2019,03,19,14,59,21.20
2019,03,19,15,00,21.10
2019,03,19,15,01,21.00
2019,03,19,15,02,21.00
2019,03,19,15,03,20.90
2019,03,19,15,04,20.80
2019,03,19,15,05,20.80
2019,03,19,15,06,20.80
2019,03,19,15,07,20.80
2019,03,19,15,08,20.80
2019,03,19,15,09,20.80
2019,03,19,15,10,20.70
2019,03,19,15,11,20.70
2019,03,19,15,12,20.80
2019,03,19,15,13,20.80
2019,03,19,15,14,20.80
2019,03,19,15,15,20.90
2019,03,19,15,16,20.90
2019,03,19,15,17,20.90
2019,03,19,15,18,20.90
2019,03,19,15,19,20.90
2019,03,19,15,20,21.00
2019,03,19,15,21,21.00
2019,03,19,15,22,21.00
2019,03,19,15,23,21.10
2019,03,19,15,24,21.10
2019,03,19,15,25,21.20
2019,03,19,15,26,21.20
2019,03,19,15,27,21.20
2019,03,19,15,28,21.30
2019,03,19,15,29,21.30
2019,03,19,15,30,21.30
2019,03,19,15,31,21.20
2019,03,19,15,32,21.20
2019,03,19,15,33,21.20
2019,03,19,15,34,21.20
2019,03,19,15,35,21.20
2019,03,19,15,36,21.20
2019,03,19,15,37,21.20
2019,03,19,15,38,21.20
2019,03,19,15,39,21.20
2019,03,19,15,40,21.10
2019,03,19,15,41,21.10
2019,03,19,15,42,21.10
2019,03,19,15,43,21.10
2019,03,19,15,44,21.20
2019,03,19,15,45,21.20
2019,03,19,15,46,21.30
2019,03,19,15,47,21.30
2019,03,19,15,48,21.30
2019,03,19,15,49,21.30
2019,03,19,15,50,21.30
2019,03,19,15,51,21.30
2019,03,19,15,52,21.30
2019,03,19,15,53,21.30
2019,03,19,15,54,21.30
2019,03,19,15,55,21.30
2019,03,19,15,56,21.30
2019,03,19,15,57,21.30
2019,03,19,15,58,21.40
2019,03,19,15,59,21.40
2019,03,19,16,00,21.40
2019,03,19,16,01,21.40
2019,03,19,16,02,21.40
2019,03,19,16,03,21.40
2019,03,19,16,04,21.50
2019,03,19,16,05,21.60
2019,03,19,16,06,21.60
2019,03,19,16,07,21.60
2019,03,19,16,08,21.60
2019,03,19,16,09,21.60
2019,03,19,16,10,21.60
2019,03,19,16,11,21.60
2019,03,19,16,12,21.60
2019,03,19,16,13,21.60
2019,03,19,16,14,21.60
2019,03,19,16,15,21.60
2019,03,19,16,16,21.60
2019,03,19,16,17,21.70
2019,03,19,16,18,21.70
2019,03,19,16,19,21.70
2019,03,19,16,20,21.70
2019,03,19,16,21,21.70
2019,03,19,16,22,21.70
2019,03,19,16,23,21.70
2019,03,19,16,24,21.70
2019,03,19,16,25,21.70
2019,03,19,16,26,21.70
2019,03,19,16,27,21.70
2019,03,19,16,28,21.70
2019,03,19,16,29,21.70
2019,03,19,16,30,21.70
2019,03,19,16,31,21.70
2019,03,19,16,32,21.70
2019,03,19,16,33,21.70
2019,03,19,16,34,21.70
2019,03,19,16,35,21.70
2019,03,19,16,36,21.70
2019,03,19,16,37,21.70
2019,03,19,16,38,21.70
2019,03,19,16,39,21.70
2019,03,19,16,40,21.70
2019,03,19,16,41,21.70
2019,03,19,16,42,21.60
2019,03,19,16,43,21.60
2019,03,19,16,44,21.60
2019,03,19,16,45,21.60
2019,03,19,16,46,21.60
2019,03,19,16,47,21.60
2019,03,19,16,48,21.60
2019,03,19,16,49,21.40
2019,03,19,16,50,21.40
2019,03,19,16,51,21.40
2019,03,19,16,52,21.30
2019,03,19,16,53,21.30
2019,03,19,16,54,21.40
2019,03,19,16,55,21.40
2019,03,19,16,56,21.40
2019,03,19,16,57,21.30
2019,03,19,16,58,21.30
2019,03,19,16,59,21.40
2019,03,19,17,00,21.40
2019,03,19,17,01,21.40
2019,03,19,17,02,21.40
2019,03,19,17,03,21.40
2019,03,19,17,04,21.30
2019,03,19,17,05,21.30
2019,03,19,17,06,21.30
2019,03,19,17,07,21.30
2019,03,19,17,08,21.30
2019,03,19,17,09,21.30
2019,03,19,17,10,21.30
2019,03,19,17,11,21.30
2019,03,19,17,12,21.30
2019,03,19,17,13,21.40
2019,03,19,17,14,21.40
2019,03,19,17,15,21.40
2019,03,19,17,16,21.30
2019,03,19,17,17,21.30
2019,03,19,17,18,21.30
2019,03,19,17,19,21.30
2019,03,19,17,20,21.30
2019,03,19,17,21,21.30
2019,03,19,17,22,21.20
2019,03,19,17,23,21.20
2019,03,19,17,24,21.20
2019,03,19,17,25,21.20
2019,03,19,17,26,21.20
2019,03,19,17,27,21.20
2019,03,19,17,28,21.20
2019,03,19,17,29,21.20
2019,03,19,17,30,21.20
2019,03,19,17,31,21.20
2019,03,19,17,32,21.20